User: anonymous   Login
Location: Young's Pond
(41.2695°N, 72.7766°W)
Time: 19:01:10
(UTC-04:00)
Language:

CZ-4B R/B - Orbit

View from above orbital plane
View from above orbital plane
View from above satellite
View from above satellite

Ground track
Ground track

The orbit data is extracted from the following two-line orbital elements,

1 29093U 06015B   18109.32924182  .00002237  00000-0  51677-4 0  9999
2 29093  97.5199 233.5761 0058970 296.1160  63.4026 15.41923139664674
Epoch (UTC): 19 April 2018 07:54:06
Eccentricity: 0.0058970
inclination: 97.5199°
perigee height: 400 km
apogee height: 480 km
right ascension of ascending node: 233.5761°
argument of perigee: 296.1160°
revolutions per day: 15.41923139
mean anomaly at epoch: 63.4026°
orbit number at epoch: 66467

The dashed part of the orbit path shows where the satellite is in the earth's shadow,  

DLR